IGETXO42 Weather Reports


time (UTC)temp
C
wind
direction
speed
KPH
gust
KPH
rain 1hr
cm
rain 24hr
cm
rain mn
cm
humidity
%
barometer
mb
20260510224551 12 0 0.0 0.0 0.00 0.13 0.00 86 1011.9
20260510223052 13 193 0.0 0.0 0.00 0.13 0.00 85 1012.1
20260510221556 13 0 0.0 0.0 0.00 0.13 0.00 84 1012.0
20260510220110 13 0 0.0 0.0 0.00 0.13 0.00 82 1011.8
20260510214553 13 0 0.0 0.0 0.00 0.13 0.13 82 1011.9
20260510213053 13 0 0.0 0.0 0.00 0.13 0.13 80 1011.9
20260510211551 14 0 0.0 0.0 0.00 0.13 0.13 79 1011.9
20260510210056 15 0 0.0 6.4 0.00 0.13 0.13 78 1011.7
20260510204555 15 174 0.0 4.8 0.00 0.13 0.13 78 1011.4
20260510203053 15 313 1.6 8.0 0.00 0.13 0.13 78 1011.3
20260510201550 15 358 3.2 9.7 0.00 0.13 0.13 78 1010.9
20260510200051 15 3 4.8 16.1 0.00 0.13 0.13 76 1010.4
20260510194604 16 176 4.8 19.3 0.00 0.13 0.13 74 1010.4
20260510193050 16 176 6.4 12.9 0.00 0.13 0.13 71 1010.2
20260510191607 16 119 4.8 9.7 0.00 0.13 0.13 71 1010.0
20260510190101 16 358 3.2 8.0 0.00 0.13 0.13 72 1009.7
20260510184549 17 291 1.6 8.0 0.00 0.15 0.13 73 1009.5
20260510183055 17 300 1.6 11.3 0.00 0.15 0.13 68 1009.3
20260510181601 18 256 3.2 8.0 0.00 0.15 0.13 65 1009.0
20260510180109 18 0 0.0 4.8 0.00 0.15 0.13 65 1008.8
20260510174555 18 0 0.0 6.4 0.00 0.48 0.13 67 1008.7
20260510173055 18 86 0.0 8.0 0.00 0.48 0.13 66 1008.3
20260510171604 20 53 1.6 9.7 0.00 0.48 0.13 65 1008.4
20260510170054 19 56 0.0 6.4 0.00 0.48 0.13 66 1008.5
20260510164600 20 86 0.0 8.0 0.00 0.48 0.13 64 1008.3
20260510163116 20 0 1.6 9.7 0.00 0.48 0.13 60 1008.5
20260510161602 21 68 1.6 4.8 0.00 0.48 0.13 59 1008.3
20260510160109 20 98 1.6 8.0 0.00 0.48 0.13 58 1008.5
20260510154554 20 94 0.0 4.8 0.00 0.48 0.13 65 1008.4
20260510153059 20 0 1.6 6.4 0.00 0.48 0.13 65 1008.7
20260510151555 19 35 1.6 6.4 0.00 0.48 0.13 68 1008.6
20260510144553 17 51 1.6 6.4 0.00 0.48 0.13 71 1009.1
20260510143107 17 79 3.2 11.3 0.00 0.48 0.13 72 1009.4
20260510141554 16 193 1.6 9.7 0.00 0.48 0.13 78 1009.5
20260510140055 16 82 3.2 14.5 0.00 0.48 0.13 78 1009.8
20260510134603 15 39 1.6 4.8 0.13 0.48 0.13 83 1009.7
20260510133059 14 51 0.0 6.4 0.13 0.48 0.13 81 1009.6
20260510131600 14 0 1.6 22.5 0.13 0.48 0.13 80 1010.4
20260510124554 17 175 8.0 19.3 0.00 0.36 0.00 71 1010.4
20260510123101 18 176 0.0 4.8 0.00 0.36 0.00 66 1009.1
20260510121554 19 43 1.6 12.9 0.00 0.36 0.00 63 1009.2
20260510120054 20 289 1.6 8.0 0.00 0.36 0.00 57 1009.2
20260510114553 20 98 0.0 3.2 0.00 0.36 0.00 61 1009.2
20260510113101 21 0 0.0 3.2 0.00 0.36 0.00 56 1009.2
20260510111559 21 0 0.0 3.2 0.00 0.36 0.00 59 1009.1
20260510110053 21 0 1.6 3.2 0.00 0.36 0.00 55 1009.2
20260510104601 21 0 0.0 3.2 0.00 0.36 0.00 58 1009.3
20260510103102 21 176 0.0 4.8 0.00 0.36 0.00 56 1009.4
20260510101556 22 130 0.0 6.4 0.00 0.36 0.00 56 1009.6
20260510100056 21 223 0.0 4.8 0.00 0.36 0.00 54 1009.8
20260510094555 21 0 1.6 4.8 0.00 0.36 0.00 56 1009.8
20260510093105 19 231 4.8 9.7 0.00 0.36 0.00 57 1009.9
20260510091557 19 325 3.2 9.7 0.00 0.36 0.00 58 1009.9
20260510090059 18 195 1.6 17.7 0.00 0.36 0.00 58 1010.0
20260510084602 18 246 1.6 9.7 0.00 0.36 0.00 60 1010.2
20260510083055 18 0 1.6 9.7 0.00 0.36 0.00 61 1010.2
20260510081622 18 359 3.2 8.0 0.00 0.36 0.00 61 1010.0
20260510080051 19 0 1.6 11.3 0.00 0.36 0.00 60 1009.9
20260510074555 18 249 0.0 4.8 0.00 0.36 0.00 62 1010.0
20260510073104 17 314 1.6 4.8 0.00 0.36 0.00 64 1010.0
20260510071551 17 255 1.6 9.7 0.00 0.36 0.00 63 1009.8
20260510070056 17 176 0.0 6.4 0.00 0.36 0.00 64 1009.7
20260510064600 16 260 3.2 11.3 0.00 0.36 0.00 66 1009.6
20260510063054 16 176 1.6 11.3 0.00 0.36 0.00 67 1009.3
20260510061550 15 176 1.6 11.3 0.00 0.36 0.00 67 1009.1
20260510060053 15 0 0.0 6.4 0.00 0.36 0.00 68 1009.0
20260510054552 15 193 0.0 8.0 0.00 0.36 0.00 68 1008.9
20260510053105 15 0 0.0 1.6 0.00 0.36 0.00 69 1008.9
20260510051602 15 0 0.0 0.0 0.00 0.36 0.00 69 1008.6
20260510050110 16 0 0.0 4.8 0.00 0.36 0.00 68 1008.3
20260510044603 16 176 0.0 4.8 0.00 0.36 0.00 69 1008.4
20260510043059 16 172 0.0 4.8 0.00 0.36 0.00 70 1008.5
20260510041551 16 261 0.0 4.8 0.00 0.36 0.00 70 1008.3
20260510040053 15 281 0.0 3.2 0.00 0.36 0.00 71 1008.4
20260510034556 16 0 0.0 1.6 0.00 0.36 0.00 72 1008.4
20260510033103 16 0 0.0 3.2 0.00 0.36 0.00 71 1008.1
20260510031554 16 45 0.0 4.8 0.00 0.36 0.00 72 1008.0
20260510030107 16 0 0.0 1.6 0.00 0.36 0.00 73 1008.1
20260510024553 16 45 0.0 3.2 0.00 0.36 0.00 73 1008.0
20260510023052 16 46 0.0 1.6 0.00 0.36 0.00 75 1008.3
20260510021551 16 0 0.0 3.2 0.00 0.36 0.00 76 1008.1
20260510020052 15 0 0.0 6.4 0.00 0.36 0.00 77 1007.9
20260510014601 15 110 1.6 6.4 0.00 0.36 0.00 78 1007.9
20260510013051 15 0 0.0 3.2 0.00 0.36 0.00 81 1008.2
20260510011549 15 86 1.6 9.7 0.00 0.36 0.00 83 1008.0
20260510010054 15 0 1.6 4.8 0.00 0.36 0.00 84 1008.1
20260510004551 15 46 0.0 3.2 0.00 0.36 0.00 83 1008.1
20260510003100 15 0 0.0 1.6 0.00 0.36 0.00 82 1008.3
20260510001556 15 0 0.0 1.6 0.00 0.36 0.00 83 1008.4
20260509234557 15 0 0.0 1.6 0.00 0.36 0.00 88 1008.5
20260509233059 15 0 0.0 1.6 0.00 0.36 0.00 89 1008.7
20260509231556 15 0 0.0 1.6 0.00 0.36 0.00 89 1008.6
20260509230053 15 0 0.0 3.2 0.00 0.36 0.00 89 1008.6